Погода в Аррасе

Франция     50°17′13″N   2°46′36″E
темп.,
°C
ветер,
м/с
пор.,
м/с
влажн.,
%
обл.,
%
осадки,
мм/ч
давл.,
гПа
погр.,
м
22 апреля, чт
чт2223:00+6ссв612725 0.0 1022391
02:00+5св511735 0.0 1023378
05:00+3св5107427 0.0 1024319
08:00+2св5127818 0.0 1025407
11:00+8всв795330 0.0 1026709
14:00+12всв67445 0.0 1026993
17:00+13всв674413 0.0 10251177
20:00+10св486210 0.0 1026287
23 апреля, пт
пт2323:00+5св48755 0.0 1028169
02:00+3св49810 0.0 1028192
05:00+2всв38923 0.0 1028160
08:00+2всв49825 0.0 1029223
11:00+9всв57515 0.0 1029608
14:00+13всв66393 0.0 1028987
17:00+14всв67413 0.0 10271081
20:00+11всв49591 0.0 1026248
24 апреля, сб
сб2423:00+6св48720 0.0 1027124
02:00+4всв497851 0.0 1027170
05:00+3всв4108689 0.0 1026195
08:00+4всв41085100 0.0 1026236
11:00+10всв6763100 0.0 1026556
14:00+14всв675099 0.0 10251048
17:00+14всв784652 0.0 10241194
20:00+11св51062100 0.0 1025444
25 апреля, вс
вс2523:00+8ссв61274100 0.0 1026401
02:00+6св51181100 0.0 1026340
05:00+4св5128479 0.0 1026375
08:00+3св512800 0.0 1027390
11:00+8св710520 0.0 1026690
14:00+12св67400 0.0 10251003
17:00+13св78390 0.0 10231172
20:00+10св59560 0.0 1022351
26 апреля, пн
пн2623:00+6ссв612762 0.0 1023319
02:00+5св511800 0.0 1022321
05:00+3св511850 0.0 1021310
08:00+3св511830 0.0 1020383
11:00+9св68584 0.0 1019674
14:00+12св674257 0.0 10171120
17:00+13св663976 0.0 10141286
20:00+10ссв4857100 0.0 1013259